Location: Bruderhein
(53.8035°N, 112.9265°W)
Time: 05:26:01
(UTC+00:00)

First-Move - Pass Details

Date: 29 April 2024
Orbit: 538 x 600 km, 97.7° (Epoch: 19 May)

Event Time Altitude Azimuth Distance (km) Brightness Sun altitude
Rises 10:35:30 0° 19° (NNE) 2,878 ? -10.8°
Reaches altitude 10° 10:37:48 10° 27° (NNE) 1,970 ? -10.6°
Maximum altitude 10:41:51 40° 97° (E) 898 ? -10.1°
Drops below altitude 10° 10:45:52 10° 168° (SSE) 1,948 ? -9.7°
Sets 10:48:08 0° 176° (S) 2,840 ? -9.5°
